Cloud_Cover
92 92 92 92 92 92 88 80 88 92 92 92 92 92 92 92 92 92 92 92 92 92 92 92 92 92 92 92 92 92 92 92 92 92 92 92 92 92 92 92 92 92 92 92 92 92 92 92 92 92 92 92 92 92 92 92 92 92 92 92 92 88 88 88 88 80 80 68 68
92 92 92 92 92 92 92 92 92 92 92 92 92 92 92 92 92 92 92 92 92 92 92 92 92 92 92 92 92 92 92 92 92 92 92 92 92 92 92 92 92 92 92 92 92 92 92 92 92 92 92 92 92 92 92 92 92 92 88 88 88 88 88 88 88 80 76 76 64
92 92 92 92 92 92 92 92 92 92 92 88 88 92 92 92 92 92 92 92 92 92 92 92 92 92 92 92 92 92 92 92 92 92 92 92 92 92 92 92 92 92 92 92 92 92 92 92 92 92 92 92 92 92 92 92 88 88 92 92 92 92 88 80 68 56 48 44 44
92 92 92 92 92 92 92 92 92 92 92 92 92 92 92 92 92 92 92 92 92 92 92 92 92 92 92 92 92 92 92 92 92 92 92 92 92 92 92 92 92 92 92 92 92 92 92 92 92 92 92 92 92 92 92 92 92 92 92 92 92 92 88 88 88 76 68 68 76
92 92 92 92 92 92 92 92 92 92 92 92 92 92 92 92 92 92 92 92 92 92 92 92 92 92 92 92 92 92 92 92 92 92 92 92 92 92 92 92 92 92 92 92 92 92 92 92 92 92 92 92 92 92 92 92 92 92 92 80 88 80 80 88 88 88 80 80 88
92 92 92 92 92 92 92 92 92 92 92 92 92 92 92 92 92 92 92 92 92 92 92 92 92 92 92 92 92 92 92 92 92 92 92 92 92 92 92 92 92 92 92 92 92 92 92 92 92 92 92 92 92 92 92 92 92 80 68 68 68 64 64 56 76 88 92 92 92
92 80 76 76 76 80 92 92 92 92 92 92 92 92 92 92 92 92 92 92 92 92 92 92 92 92 92 92 92 92 92 92 92 92 92 100 100 100 92 92 92 92 92 92 92 92 92 92 92 92 92 92 92 92 92 88 88 88 80 68 64 64 56 48 48 68 92 92 92
80 80 80 80 92 92 92 92 92 92 92 92 92 92 92 92 92 92 92 92 92 92 92 92 92 92 92 92 92 92 92 92 92 92 92 92 92 100 92 92 92 92 92 92 92 92 92 92 92 92 92 92 92 92 92 92 88 88 76 64 56 56 64 64 76 76 76 88 88
92 92 92 92 92 92 92 92 92 92 92 92 92 92 92 92 92 92 92 92 92 92 92 92 92 92 92 92 92 92 92 92 92 92 92 92 92 92 92 92 92 92 92 92 92 92 92 92 92 92 92 92 92 92 92 92 88 80 68 64 64 64 68 80 80 68 68 80 80
92 92 92 92 92 92 92 92 92 92 92 92 92 92 92 92 92 92 92 92 92 92 92 92 92 92 92 92 92 92 92 92 92 92 92 92 92 92 92 92 92 92 92 92 92 92 92 92 92 88 88 88 88 88 88 88 80 76 68 64 64 68 76 68 68 76 68 64 76
92 92 92 92 92 92 92 92 88 92 92 92 92 92 92 92 92 92 92 92 92 92 92 92 92 92 92 92 92 92 92 92 92 92 92 92 92 92 92 92 92 92 92 92 92 92 92 80 76 76 76 76 80 80 80 76 76 68 68 68 80 80 68 64 56 56 64 56 64
92 92 92 92 92 92 92 92 88 88 92 92 92 92 92 92 92 92 92 92 92 92 92 92 92 92 92 92 92 92 92 92 92 92 92 92 92 92 100 100 92 92 92 92 92 92 92 80 68 68 68 68 76 76 76 80 76 76 76 76 88 88 88 68 48 48 48 36 56
92 92 92 92 92 88 88 92 92 92 92 92 92 92 92 92 92 92 92 92 92 92 92 92 92 92 92 92 92 92 92 92 92 92 92 92 92 92 100 100 92 92 92 92 92 92 92 92 80 68 64 64 64 64 68 88 80 80 76 76 80 88 80 80 68 56 48 44 56
92 92 92 92 92 88 80 92 92 92 92 92 92 92 92 92 92 92 92 92 92 92 92 92 92 92 92 92 92 92 92 92 92 92 92 92 92 100 100 100 92 92 92 92 92 92 92 92 88 76 64 64 64 68 80 88 88 80 76 68 68 68 76 68 76 64 56 56 56
92 92 92 92 92 92 92 92 92 92 92 92 92 92 92 92 92 92 92 92 92 92 92 92 92 92 92 92 92 92 92 92 92 92 92 92 92 100 100 100 92 92 92 92 92 92 92 92 92 88 80 80 80 88 80 80 80 80 68 56 56 56 64 64 56 56 48 56 56
92 92 92 92 92 92 92 92 92 92 92 92 92 92 92 92 92 92 92 92 92 92 92 92 92 92 92 92 92 92 92 92 92 92 92 92 92 92 92 92 92 92 92 92 88 92 92 92 92 92 92 88 88 88 80 76 80 80 68 48 48 48 48 48 44 44 48 56 48
92 92 92 92 92 92 92 92 92 92 92 92 92 92 88 92 92 92 92 88 92 92 92 92 92 92 92 92 92 92 92 92 92 92 92 92 92 92 92 92 92 92 88 88 88 88 92 92 92 92 92 92 92 88 80 76 80 80 68 44 44 44 44 48 44 44 44 36 32
92 88 88 92 92 92 92 92 92 92 92 92 92 92 88 88 92 92 92 92 92 92 92 92 92 92 92 88 92 92 92 92 92 92 92 92 92 92 92 92 92 88 88 80 80 88 88 88 88 92 92 92 92 92 88 88 88 76 56 44 36 44 44 48 36 36 32 24 20
92 92 88 92 92 92 92 92 92 92 92 92 92 92 88 88 92 92 92 92 92 92 92 92 92 92 92 92 92 92 92 92 88 92 92 92 92 92 92 92 92 88 80 76 80 80 88 88 88 88 88 88 88 92 92 92 80 56 44 44 36 44 48 36 36 32 32 24 20
88 92 92 88 88 88 92 92 92 92 92 92 92 92 88 88 92 88 88 92 92 92 92 76 76 80 92 92 92 92 92 92 92 88 88 80 88 88 88 92 88 80 76 68 68 76 76 80 80 80 76 80 80 88 88 88 68 56 48 44 44 44 36 20 20 20 20 12 12
92 92 88 76 64 76 88 88 92 92 92 92 92 92 88 88 88 88 88 92 92 88 76 64 48 64 76 92 92 92 92 92 80 80 76 56 56 64 68 80 80 76 68 64 64 64 68 68 76 76 76 76 80 80 88 88 68 64 56 44 36 32 24 8 8 8 8 0 8
92 92 92 88 64 56 68 88 88 92 92 92 92 88 88 80 80 88 92 92 92 76 64 64 56 56 64 76 80 80 80 92 88 68 48 36 36 44 56 68 76 76 64 56 64 56 56 64 68 68 68 64 64 68 76 68 48 44 36 32 32 24 20 8 8 0 0 0 0
92 92 92 92 76 68 76 88 88 92 92 92 92 92 88 80 88 88 92 92 80 68 64 68 56 56 64 64 56 48 56 88 56 36 24 24 24 24 32 64 64 56 48 48 48 44 36 24 56 36 20 24 32 36 44 32 32 24 24 24 32 20 0 0 0 0 0 0 0
88 88 92 92 88 76 68 68 80 92 92 92 92 88 88 88 88 88 88 92 88 88 88 88 80 80 88 88 36 20 20 24 20 20 20 12 12 12 20 32 36 36 32 32 32 32 24 8 20 12 0 12 20 20 20 20 20 12 12 20 12 8 8 8 0 0 0 0 0
88 88 88 88 88 80 76 68 80 88 88 88 92 88 80 80 80 88 88 88 88 88 88 88 92 92 92 92 64 24 0 0 8 8 8 8 8 8 12 20 12 12 20 24 36 36 24 0 0 8 12 20 12 8 0 0 0 0 0 0 0 8 8 0 0 0 0 0 0
88 88 88 88 88 88 80 80 80 80 88 88 88 88 80 80 88 88 88 88 88 88 88 80 88 88 88 88 56 20 0 0 0 0 0 0 8 8 12 12 8 8 20 24 32 32 20 0 0 8 12 8 0 0 0 8 8 12 12 12 0 0 8 20 12 8 0 0 0
88 88 80 80 88 88 80 80 80 80 80 88 88 80 80 88 88 88 88 88 88 88 88 88 88 88 80 64 24 8 0 0 0 0 0 0 8 8 8 12 8 8 12 20 20 8 0 0 0 0 8 8 0 0 0 0 0 0 0 0 0 8 8 12 20 12 12 8 0
80 88 80 76 88 88 80 80 88 88 88 92 92 92 92 92 88 88 88 92 92 92 92 92 80 56 24 12 0 0 0 0 0 0 0 0 0 0 0 0 0 0 0 0 0 0 0 0 0 0 0 0 0 0 0 0 0 0 0 0 0 0 0 0 0 0 0 0 0
80 80 80 88 88 88 80 80 88 88 88 92 92 92 92 92 92 92 92 92 92 92 88 76 36 20 8 20 8 0 0 0 0 0 0 0 0 0 0 0 0 0 0 0 0 0 0 0 0 0 0 0 0 0 0 0 0 0 0 0 0 0 0 0 0 0 0 0 0
80 80 80 88 88 88 88 88 88 88 88 92 92 92 92 92 92 92 92 92 76 48 24 20 8 8 20 24 12 8 0 0 0 0 0 0 0 0 0 0 0 0 0 0 0 0 0 0 0 0 0 0 0 0 0 0 0 0 0 0 0 0 0 0 0 0 0 0 0
76 68 56 76 80 88 88 80 64 64 68 80 76 64 68 88 88 88 88 68 48 24 8 0 8 12 20 24 20 8 0 0 0 0 0 0 0 0 0 0 0 0 0 0 0 0 0 0 0 0 0 0 0 0 0 0 0 0 0 0 0 0 0 0 0 0 0 0 0
56 56 48 56 76 80 88 88 68 68 68 76 76 64 56 80 68 80 76 32 24 12 8 12 20 20 24 32 20 12 12 0 0 0 0 0 0 0 0 0 0 0 0 0 0 0 0 0 0 0 0 0 8 0 0 0 0 0 0 0 0 0 0 0 0 0 0 0 0
36 44 48 44 48 64 76 80 80 80 80 80 64 48 44 48 76 80 76 56 48 24 8 20 24 24 20 20 12 12 12 0 0 0 0 0 0 0 0 0 0 0 8 0 0 0 0 0 0 0 0 0 8 0 0 0 0 0 0 0 0 0 0 0 0 0 0 0 0
24 32 44 44 44 56 76 80 80 80 80 80 68 48 44 64 68 76 76 76 64 32 8 20 12 8 8 0 0 0 0 0 0 0 0 0 0 0 0 0 0 0 0 8 0 0 0 0 0 0 0 0 0 0 0 0 0 0 0 0 0 0 0 0 0 0 0 0 0
8 20 24 36 44 56 64 80 80 76 76 76 80 64 44 36 32 44 48 48 76 44 12 12 0 0 0 0 0 0 0 0 0 0 0 0 0 0 0 0 0 0 0 0 0 0 0 0 0 0 0 0 0 0 0 0 0 0 0 0 0 0 0 0 0 0 0 0 0
0 0 8 20 44 56 64 76 76 76 76 68 68 64 56 44 36 36 44 68 80 48 20 12 0 0 0 0 0 0 0 0 0 0 0 0 0 0 0 0 0 0 0 8 0 0 0 0 0 0 0 0 0 0 0 0 0 0 0 0 0 0 0 0 0 0 0 0 0
0 0 0 8 24 36 48 56 68 68 64 48 32 24 24 32 36 56 76 80 76 36 8 0 0 0 0 0 0 0 0 0 0 0 0 0 0 0 0 0 0 0 0 0 0 0 0 0 0 0 0 0 0 0 0 0 0 0 0 0 0 0 0 0 0 0 0 0 8
0 0 0 0 12 24 36 48 48 44 36 24 20 12 8 8 24 48 68 76 36 12 0 0 0 0 0 0 0 0 0 0 0 0 0 0 0 0 0 0 0 0 0 0 0 0 0 0 0 0 0 0 0 0 0 0 0 0 0 0 0 0 0 0 0 0 0 0 12
0 0 0 0 0 8 20 36 24 20 12 8 0 0 0 0 12 24 36 44 12 0 0 0 0 0 0 0 0 0 0 0 0 0 0 0 0 0 0 0 0 0 0 0 0 0 0 0 0 0 0 0 0 0 0 0 0 0 0 0 0 0 0 0 0 0 0 0 0
0 0 0 0 0 0 0 12 8 0 0 0 0 0 0 0 8 12 12 12 0 0 0 0 0 0 0 0 0 0 0 0 0 0 0 0 0 0 0 0 0 0 0 0 0 0 0 0 0 0 0 0 0 0 0 0 0 0 0 0 0 0 0 0 0 0 0 0 0
0 0 0 0 0 0 0 0 0 0 0 0 0 0 0 0 0 0 0 0 0 0 0 0 0 0 0 0 0 0 0 0 0 0 0 0 0 0 0 0 0 0 0 0 0 0 0 0 12 8 0 0 0 0 0 0 0 0 0 0 0 0 0 0 0 0 0 0 0